Wetbulb
59.79 59.74 60.19 60.24 60.06 59.81 59.93 59.91 59.87 59.79 59.62 59.10 58.43 58.14 57.92 58.01 58.25 58.50 58.55 58.48 58.67 58.78 59.29 59.80 60.60 61.12 59.54 57.91 57.12 69.08 76.84 78.05 75.20 73.49 71.28 70.68 67.54 65.96 62.85 63.02 63.87 61.75 64.80 65.96 67.10 66.16 65.52
59.99 60.22 60.13 60.16 60.17 60.23 60.09 60.00 59.71 58.95 58.57 58.19 58.01 57.75 57.51 57.53 57.63 58.04 58.14 57.97 58.07 58.53 59.29 59.87 60.71 61.21 56.70 51.55 66.94 70.81 67.36 72.16 71.14 70.42 71.34 71.69 68.67 64.02 61.70 62.58 61.61 65.57 65.90 65.48 66.32 66.27 65.24
60.65 60.52 60.58 60.53 60.42 60.30 59.97 59.77 59.75 58.69 58.17 57.89 57.72 57.55 57.47 57.43 58.08 57.80 57.85 57.50 58.02 58.31 59.16 60.60 61.39 61.74 57.71 56.76 65.41 65.83 67.75 68.90 70.29 70.16 69.12 70.26 65.91 62.22 61.22 60.00 65.57 63.72 63.15 64.43 65.09 65.60 63.16
60.95 60.84 60.78 60.69 60.53 60.20 60.02 59.78 59.39 58.28 58.01 57.86 57.62 57.43 57.69 57.72 57.54 57.36 57.16 57.56 57.63 58.73 59.84 61.85 62.73 60.38 54.94 62.04 67.12 64.72 66.35 66.89 69.46 71.10 69.70 67.70 66.28 62.87 61.25 63.46 62.30 59.56 59.92 57.63 63.75 64.44 62.13
60.63 60.60 60.52 60.73 60.52 60.07 59.65 59.57 58.69 58.16 57.92 57.62 57.53 57.45 57.41 57.60 57.17 56.80 56.53 57.17 57.94 59.98 61.57 63.73 58.82 57.28 54.83 67.95 63.47 67.86 67.55 65.85 68.03 68.85 67.05 69.48 64.20 59.58 60.75 56.82 53.85 57.32 53.09 58.68 60.77 63.49 59.17
60.25 60.25 59.90 59.78 59.51 59.18 59.09 58.68 58.51 58.21 57.78 57.86 57.56 57.20 57.16 57.08 56.67 56.03 56.23 56.84 58.49 59.02 61.86 64.08 62.93 55.96 58.69 58.81 60.68 63.37 67.84 68.61 66.29 65.38 64.54 63.54 61.07 56.71 56.71 54.59 47.16 54.29 53.11 59.73 56.90 58.11 59.46
60.27 60.34 59.88 59.65 59.27 59.01 58.80 58.59 58.25 58.34 58.26 57.67 57.44 57.30 56.64 56.44 56.07 55.84 54.77 58.20 56.22 55.37 58.20 55.40 54.97 58.27 57.35 60.34 61.42 62.81 65.45 66.11 65.44 61.13 56.18 58.49 54.83 52.54 56.31 56.61 57.56 56.98 56.00 56.64 60.56 61.10 61.10
60.20 59.61 59.43 59.33 58.95 58.78 58.71 58.34 58.18 58.07 57.53 57.53 57.25 56.86 56.21 56.82 56.53 55.76 53.15 55.74 59.99 57.48 53.29 60.61 59.76 59.25 58.65 58.15 57.72 61.72 65.12 60.91 60.10 55.39 57.35 53.57 51.32 57.70 60.12 59.12 57.92 56.57 54.73 56.11 58.23 60.66 58.64
60.26 59.98 59.72 59.52 59.31 59.07 58.94 58.66 57.93 57.84 57.58 56.89 56.46 56.22 55.91 56.29 55.74 52.57 55.54 59.18 64.05 59.65 51.81 56.68 59.19 56.61 55.19 56.05 57.52 59.19 62.00 60.55 57.09 54.07 54.28 51.17 57.47 60.06 58.93 57.76 56.60 56.03 51.42 53.17 56.34 59.64 59.49
60.18 59.90 59.59 59.59 59.39 59.19 58.99 58.57 57.99 57.84 57.33 56.74 56.38 56.07 55.41 55.32 53.16 59.07 58.09 61.69 62.08 59.89 48.41 53.22 53.56 56.09 56.61 55.95 53.27 59.97 62.21 58.81 54.47 51.30 52.69 52.68 58.90 59.42 57.94 56.60 53.69 45.71 52.46 53.26 57.65 53.84 49.78
60.38 60.15 60.02 59.77 59.45 59.04 58.67 58.39 58.13 57.44 56.83 57.01 56.59 55.61 55.00 54.22 52.82 57.72 62.02 60.31 59.81 57.77 42.00 54.36 53.66 57.54 55.72 52.89 54.13 55.22 61.36 57.58 53.01 52.61 50.18 50.43 53.58 56.46 57.12 54.89 56.20 52.43 54.68 52.16 52.15 50.35 50.78
60.51 60.35 60.19 60.02 59.75 59.03 58.33 57.97 57.97 57.48 57.00 56.41 55.74 55.03 55.06 54.37 54.45 58.46 62.56 60.60 58.31 48.04 45.06 50.51 52.99 51.51 51.48 52.42 52.97 55.95 55.96 56.17 56.07 52.94 53.42 53.51 56.73 54.45 53.13 56.11 56.71 56.02 52.49 51.28 49.68 51.80 45.52
60.57 60.46 60.08 59.86 59.48 59.02 58.35 57.97 57.73 57.14 56.45 55.48 54.45 53.93 53.20 59.21 60.30 62.88 61.13 58.76 48.33 44.36 56.66 49.36 49.95 51.26 50.18 50.28 52.06 52.72 51.73 49.37 47.99 45.15 47.26 52.25 52.38 54.28 54.48 50.48 53.92 52.03 45.73 41.47 41.82 45.63 45.05
60.44 60.32 60.10 59.72 59.34 59.02 58.53 58.08 57.51 56.97 56.21 54.61 52.94 52.83 54.46 57.94 61.97 62.55 60.43 54.12 48.37 53.70 52.21 52.61 51.46 50.86 49.09 50.22 51.05 52.12 50.22 47.52 50.80 49.53 47.84 45.22 45.57 51.36 54.41 51.12 49.69 49.43 47.59 42.35 37.12 41.62 46.33
60.48 60.32 60.06 59.50 59.32 59.00 58.83 58.18 57.22 56.59 55.63 54.10 52.20 56.21 59.25 62.52 61.19 60.78 56.78 50.26 52.16 54.19 54.17 50.25 50.21 47.71 48.48 50.57 50.10 50.26 49.26 48.47 49.90 50.12 44.76 43.86 47.11 53.02 53.92 52.95 52.65 49.30 45.50 48.83 43.85 49.05 46.35
60.50 60.36 60.04 59.66 59.28 59.00 58.97 58.26 57.30 56.31 55.41 53.67 59.59 62.24 63.24 66.89 63.34 60.91 55.10 50.59 51.88 56.26 57.69 57.36 47.99 49.89 47.34 48.84 48.47 47.91 49.00 52.59 53.67 55.57 53.89 49.68 45.22 49.10 50.95 50.13 50.64 51.79 49.22 43.64 43.71 41.25 39.53
60.52 60.16 60.04 59.64 59.28 59.06 59.13 58.66 57.36 55.73 54.76 53.65 60.82 61.25 63.90 65.98 64.50 59.12 53.18 53.82 55.48 56.22 58.60 55.30 54.07 53.98 52.76 49.52 49.69 48.74 51.02 54.84 56.15 55.23 54.28 52.76 48.89 48.33 49.34 46.62 45.67 45.62 43.96 46.55 44.45 46.91 43.12
60.40 60.09 59.74 59.68 59.22 59.21 59.23 58.52 57.16 54.83 53.46 55.39 62.90 59.43 65.08 65.84 57.77 59.31 55.00 55.45 55.80 56.97 58.95 57.09 57.04 55.48 54.10 53.60 52.36 53.10 53.58 54.86 56.92 54.88 51.27 53.60 46.55 43.65 47.00 51.99 51.47 50.14 47.44 46.54 43.28 44.48 48.76
60.60 60.11 59.86 59.62 59.06 59.00 59.04 58.21 57.06 55.20 53.69 54.13 60.30 62.41 64.79 63.82 54.87 55.93 56.59 55.91 56.80 56.00 56.56 56.85 56.26 57.24 56.50 53.43 52.49 54.86 56.80 57.63 56.85 55.73 51.57 52.76 47.88 42.42 47.36 52.37 54.35 49.07 50.75 50.07 47.05 49.10 47.71
60.67 60.44 60.27 59.67 59.02 59.11 58.96 58.12 56.85 56.03 55.36 55.09 62.18 59.16 60.97 61.40 60.57 57.40 56.34 55.86 56.12 58.28 57.32 57.83 57.28 56.72 55.22 53.94 53.30 53.09 55.44 57.49 57.78 56.57 63.61 57.92 47.63 44.33 43.66 48.19 50.87 49.68 52.76 50.33 50.13 45.74 46.99
60.71 60.67 60.31 59.46 59.12 59.12 58.75 58.19 57.11 55.95 55.86 57.95 64.43 60.44 61.02 56.87 57.51 57.58 57.18 57.24 56.52 55.62 58.59 59.06 57.21 56.34 54.73 51.95 54.73 55.15 57.26 56.33 56.72 61.01 56.30 52.52 47.16 49.06 50.49 52.72 52.42 53.10 52.53 52.47 48.75 49.45 45.81
60.40 60.42 60.33 59.44 59.21 59.07 58.80 58.53 57.49 55.78 55.04 63.72 58.52 58.28 60.51 59.41 58.12 58.88 55.95 56.87 55.91 56.23 56.42 55.00 54.32 55.47 55.05 53.70 54.11 53.30 55.08 54.63 54.34 56.92 55.51 54.39 48.35 50.82 50.31 53.46 53.94 51.66 54.03 54.16 53.57 55.03 59.55
60.22 60.34 60.29 59.23 59.32 59.18 59.05 58.63 57.79 55.72 56.71 60.78 62.51 62.78 60.81 57.66 59.09 57.17 56.69 57.09 56.81 57.83 58.60 57.81 55.61 54.08 55.25 56.01 56.42 56.51 56.03 55.29 54.48 52.68 51.69 51.72 49.24 48.22 45.29 52.47 52.26 48.53 51.23 53.58 53.98 58.86 60.34
59.84 60.09 59.40 59.24 59.50 59.27 59.08 59.04 58.47 57.03 55.80 59.53 62.78 61.82 60.00 56.68 57.70 55.83 56.21 56.46 56.08 57.05 55.31 55.17 55.50 54.80 57.24 57.98 56.51 55.34 53.93 53.40 54.04 53.63 52.68 49.29 48.51 47.79 45.70 48.31 42.15 49.77 55.80 56.39 55.09 57.00 60.59
58.48 58.56 58.68 58.99 59.22 59.29 59.28 59.45 59.37 57.96 56.45 59.40 63.95 61.73 59.42 56.16 59.24 58.10 57.48 57.19 58.10 57.75 56.83 57.26 58.12 58.34 57.82 55.19 51.13 50.46 50.51 50.78 52.77 53.99 52.08 51.73 48.51 45.57 43.54 43.30 48.34 51.85 56.52 55.20 52.82 54.58 60.51
57.55 57.93 58.17 58.66 58.99 59.15 59.34 59.57 59.60 58.50 56.45 60.03 62.80 65.86 61.40 58.20 57.93 60.54 57.82 59.22 56.03 55.30 56.50 59.37 60.87 57.86 55.90 52.48 51.54 48.20 47.56 52.26 51.86 52.97 55.59 54.15 51.99 48.60 46.25 42.54 41.22 52.14 58.14 59.71 57.13 51.14 60.31
57.61 57.61 57.76 58.16 58.60 59.18 59.23 59.55 60.29 59.59 57.37 57.66 62.07 65.28 62.46 58.09 61.93 59.99 56.76 56.34 59.10 57.34 54.97 58.00 58.93 56.34 56.35 52.37 50.17 49.14 49.40 55.64 49.33 48.68 50.75 51.60 50.07 47.10 46.74 44.28 51.01 57.19 59.07 59.47 47.02 52.20 60.78
58.05 58.21 57.76 57.64 58.06 58.66 59.14 59.28 60.09 59.91 59.05 57.72 60.89 65.44 62.88 58.86 59.50 62.52 62.23 59.72 59.28 57.96 54.66 57.73 57.02 58.16 56.06 53.09 52.42 52.61 51.62 54.02 51.79 52.88 51.34 51.03 49.36 49.30 49.68 45.87 45.76 61.50 59.57 55.19 58.00 59.95 61.50
57.71 57.99 58.10 58.09 58.26 59.05 59.10 58.96 59.27 59.66 58.90 58.26 60.71 63.83 65.09 61.76 60.17 63.51 63.68 64.32 63.11 61.91 57.78 57.90 56.87 57.20 56.73 53.98 54.91 55.14 52.44 53.88 52.47 47.42 55.75 50.63 53.82 51.61 52.55 53.33 58.98 59.93 58.82 60.15 60.74 60.66 60.37
MSLP
1020.59 1020.31 1019.77 1019.33 1018.91 1018.42 1017.93 1017.46 1017.00 1016.60 1016.23 1015.98 1015.64 1015.28 1014.93 1014.57 1014.03 1013.64 1013.25 1012.83 1012.46 1012.29 1012.00 1011.79 1011.48 1011.18 1010.63 1009.50 1006.12 1004.76 1005.11 1005.53 1005.99 1006.22 1005.98 1005.99 1006.41 1006.68 1007.07 1007.36 1007.49 1007.95 1006.10 1006.35 1005.47 1005.27 1004.93
1020.62 1020.22 1019.72 1019.23 1018.76 1018.27 1017.80 1017.35 1016.88 1016.42 1016.00 1015.68 1015.39 1015.03 1014.69 1014.30 1013.88 1013.33 1012.92 1012.54 1012.14 1011.97 1011.79 1011.52 1011.27 1011.16 1010.57 1007.56 1004.03 1004.32 1004.98 1005.58 1005.35 1005.66 1005.15 1004.99 1004.53 1003.96 1004.21 1004.62 1005.44 1004.58 1004.45 1005.02 1004.77 1004.54 1004.68
1020.66 1020.16 1019.69 1019.12 1018.58 1018.14 1017.65 1017.19 1016.69 1016.17 1015.73 1015.35 1015.03 1014.74 1014.41 1014.04 1013.56 1013.07 1012.56 1012.24 1011.79 1011.56 1011.41 1011.16 1011.01 1010.72 1008.98 1005.38 1003.47 1004.05 1004.53 1004.89 1004.72 1004.71 1004.51 1003.78 1003.21 1003.56 1003.54 1003.70 1003.24 1003.50 1004.20 1004.66 1004.69 1005.11 1005.60
1020.70 1020.14 1019.68 1019.09 1018.56 1018.05 1017.57 1016.99 1016.50 1015.98 1015.45 1014.96 1014.66 1014.39 1014.04 1013.66 1013.18 1012.76 1012.32 1011.84 1011.39 1011.11 1010.88 1010.72 1010.73 1010.14 1007.11 1002.78 1003.13 1003.71 1004.02 1004.41 1004.30 1003.98 1003.68 1003.11 1002.86 1003.11 1003.49 1003.96 1004.65 1004.97 1005.25 1004.80 1005.10 1005.44 1006.72
1020.74 1020.20 1019.70 1019.08 1018.48 1017.89 1017.33 1016.75 1016.24 1015.72 1015.19 1014.63 1014.14 1013.87 1013.61 1013.24 1012.84 1012.39 1011.94 1011.33 1010.76 1010.42 1010.37 1010.39 1010.40 1009.37 1005.40 1002.69 1002.72 1002.86 1003.23 1003.61 1003.47 1003.41 1003.17 1002.95 1002.86 1002.94 1003.27 1004.66 1004.94 1004.62 1004.41 1005.48 1006.13 1006.29 1007.10
1020.78 1020.26 1019.72 1019.09 1018.47 1017.84 1017.21 1016.57 1015.99 1015.39 1014.80 1014.35 1013.82 1013.39 1013.19 1012.90 1012.53 1012.14 1011.43 1010.45 1009.89 1009.91 1009.82 1009.70 1008.66 1007.95 1004.59 1002.51 1002.33 1002.29 1002.59 1003.01 1003.06 1003.00 1002.93 1003.04 1003.06 1003.77 1003.54 1004.78 1005.69 1004.85 1004.57 1004.95 1006.45 1008.06 1009.00
1020.88 1020.27 1019.66 1019.13 1018.52 1017.81 1017.05 1016.39 1015.77 1015.14 1014.49 1013.97 1013.50 1013.03 1012.79 1012.60 1012.35 1012.10 1011.19 1009.58 1009.94 1009.29 1008.55 1006.62 1005.42 1004.00 1001.94 1001.78 1001.69 1002.15 1002.32 1002.77 1002.92 1003.08 1003.24 1003.06 1003.74 1004.35 1003.40 1003.64 1003.87 1004.28 1005.78 1005.36 1006.06 1007.83 1008.33
1020.82 1020.31 1019.71 1019.11 1018.41 1017.69 1016.97 1016.17 1015.46 1014.80 1014.14 1013.58 1013.14 1012.72 1012.39 1012.22 1012.09 1012.08 1012.14 1010.00 1006.42 1005.20 1005.41 1004.59 1004.17 1003.26 1001.80 1001.02 1001.65 1001.83 1002.12 1002.94 1003.21 1003.60 1003.36 1003.44 1003.54 1003.66 1003.28 1002.97 1003.24 1003.12 1004.16 1004.22 1006.26 1006.76 1009.05
1020.82 1020.18 1019.59 1018.92 1018.15 1017.37 1016.61 1015.85 1015.09 1014.37 1013.71 1013.17 1012.69 1012.34 1012.10 1011.97 1011.84 1011.98 1010.16 1007.59 1005.28 1004.56 1004.47 1002.85 1002.70 1001.72 1001.25 1001.20 1001.38 1001.57 1002.07 1002.71 1003.17 1003.63 1003.46 1003.39 1003.44 1002.81 1002.17 1002.21 1002.51 1002.00 1002.31 1002.32 1004.34 1006.73 1010.08
1020.88 1020.27 1019.55 1018.71 1017.92 1017.14 1016.34 1015.52 1014.78 1013.99 1013.29 1012.68 1012.24 1011.96 1011.81 1011.66 1011.84 1009.33 1007.88 1005.37 1005.00 1004.32 1004.15 1001.95 1001.75 1000.87 1000.87 1001.14 1001.15 1000.86 1001.46 1002.50 1002.82 1002.96 1002.99 1002.54 1002.12 1002.01 1001.75 1001.74 1000.70 1000.92 1000.53 1001.12 1003.21 1005.30 1007.53
1020.90 1020.20 1019.49 1018.74 1017.94 1017.10 1016.20 1015.33 1014.58 1013.76 1013.04 1012.42 1012.01 1011.78 1011.61 1011.76 1011.09 1008.58 1005.59 1004.77 1004.66 1004.51 1003.59 1001.18 1000.61 999.70 1000.31 1001.04 1000.18 1000.47 1001.08 1001.91 1002.28 1002.24 1002.22 1001.42 1000.97 1000.95 1000.71 1000.24 999.93 1000.16 1000.05 1001.08 1002.28 1004.28 1006.78
1020.98 1020.28 1019.50 1018.72 1017.86 1016.96 1016.00 1015.08 1014.25 1013.51 1012.83 1012.36 1011.89 1011.59 1011.46 1011.32 1010.53 1006.83 1005.01 1004.64 1004.68 1004.66 1001.99 1000.53 1000.29 1000.12 1000.68 1000.86 1000.68 1000.64 1001.23 1001.53 1001.50 1002.00 1001.50 1000.68 1000.00 999.60 999.51 999.55 999.70 999.75 1000.12 1001.01 1002.04 1004.26 1007.67
1021.03 1020.32 1019.52 1018.69 1017.79 1016.86 1015.88 1014.90 1014.00 1013.14 1012.45 1011.86 1011.39 1011.24 1011.31 1009.71 1007.56 1005.42 1005.09 1004.87 1004.97 1003.42 1000.85 1000.69 1000.64 1000.63 1000.81 1000.92 1000.97 1000.86 1001.39 1001.83 1002.06 1002.00 1001.80 1000.54 999.68 999.08 999.01 999.58 999.61 999.96 1000.79 1002.00 1003.41 1005.37 1008.37
1021.06 1020.39 1019.63 1018.76 1017.80 1016.79 1015.77 1014.78 1013.73 1012.63 1011.73 1011.29 1010.96 1010.84 1009.63 1008.51 1006.19 1006.02 1005.39 1005.05 1004.12 1001.73 1000.67 999.89 1000.47 1000.76 1001.00 1000.56 1000.66 1000.79 1001.35 1001.79 1001.55 1001.69 1001.70 1001.15 999.97 998.97 998.91 999.40 999.81 1000.24 1001.02 1002.19 1004.19 1006.53 1009.22
1021.15 1020.41 1019.60 1018.72 1017.76 1016.70 1015.68 1014.63 1013.57 1012.35 1011.21 1010.57 1010.14 1009.56 1008.55 1006.15 1006.34 1006.58 1006.26 1004.89 1002.07 1000.60 999.85 999.83 1000.41 1000.80 1000.66 1000.36 1000.17 1000.61 1000.89 1000.95 1000.56 1000.50 1001.05 1000.60 999.45 998.41 998.46 998.67 999.40 1000.04 1000.63 1001.38 1003.98 1007.17 1009.83
1021.18 1020.47 1019.63 1018.73 1017.78 1016.76 1015.68 1014.61 1013.56 1012.28 1010.68 1009.99 1009.37 1007.71 1005.30 1004.34 1005.35 1005.76 1005.59 1003.55 1000.88 1000.21 1000.27 1000.38 1000.46 1000.38 1000.48 1000.17 1000.12 1000.26 1000.38 999.91 1000.11 1000.00 1000.06 1000.60 1000.58 999.15 998.54 998.61 998.98 999.54 1000.34 1001.54 1003.39 1007.58 1010.38
1021.25 1020.52 1019.77 1018.89 1017.92 1016.90 1015.75 1014.72 1013.74 1012.51 1010.47 1009.60 1008.87 1006.58 1003.77 1003.65 1004.40 1004.94 1004.32 1001.89 1000.64 1000.18 1000.62 1002.51 1002.36 1001.44 1000.96 1000.10 999.95 1000.06 1000.12 1000.04 999.93 1000.11 1000.23 1000.78 1001.12 1000.50 999.38 999.31 999.67 999.83 1000.47 1001.50 1003.05 1006.00 1009.08
1021.32 1020.63 1019.87 1019.06 1018.08 1017.10 1015.94 1014.79 1013.96 1013.08 1011.26 1009.67 1008.45 1005.93 1003.23 1003.19 1004.02 1003.29 1002.30 1001.22 1000.92 1000.42 1000.96 1002.90 1003.99 1002.73 1001.26 1000.45 1000.54 1000.55 1000.74 1000.58 1000.32 1000.42 1000.99 1001.33 1001.42 1001.60 1000.74 999.67 999.20 999.72 1000.29 1001.10 1003.00 1005.48 1007.33
1021.37 1020.74 1020.01 1019.25 1018.44 1017.40 1016.27 1014.95 1013.86 1013.48 1013.04 1012.28 1009.30 1005.58 1002.22 1002.27 1002.91 1002.11 1001.45 1001.11 1001.09 1001.20 1001.24 1001.51 1002.50 1002.47 1001.52 1000.91 1001.33 1001.26 1000.82 1000.87 1001.00 1001.17 1001.75 1002.20 1002.28 1002.61 1001.55 1000.67 1000.36 1000.04 1000.18 1000.69 1001.70 1003.96 1006.91
1021.47 1020.92 1020.27 1019.56 1018.80 1017.84 1016.70 1015.43 1013.98 1012.54 1012.16 1011.97 1009.33 1005.80 1002.95 1002.21 1002.22 1002.36 1002.01 1001.51 1001.40 1001.51 1001.69 1002.02 1002.20 1002.06 1001.73 1001.75 1001.19 1001.27 1001.51 1001.29 1001.17 1001.39 1001.75 1002.46 1002.75 1003.21 1002.97 1002.98 1002.53 1001.55 1001.18 1000.69 1001.47 1003.90 1006.81
1021.50 1021.02 1020.46 1019.84 1019.14 1018.27 1017.25 1016.07 1014.60 1012.52 1010.62 1011.17 1008.71 1007.04 1006.36 1004.55 1003.56 1003.22 1002.84 1002.47 1002.32 1002.31 1002.50 1002.44 1002.49 1002.62 1002.72 1002.91 1002.46 1002.47 1002.02 1001.36 1001.41 1001.73 1001.87 1002.37 1003.08 1003.30 1003.00 1002.08 1001.92 1001.64 1001.66 1001.43 1001.54 1002.70 1005.23
1021.47 1021.06 1020.62 1020.08 1019.43 1018.72 1017.85 1016.85 1015.83 1014.11 1010.97 1010.41 1010.53 1009.53 1007.88 1006.41 1004.66 1004.00 1003.76 1003.55 1003.40 1003.62 1003.77 1003.63 1003.71 1003.60 1003.56 1004.28 1004.47 1004.13 1003.58 1003.15 1002.79 1002.70 1002.55 1002.85 1003.54 1003.83 1003.39 1002.83 1002.65 1001.93 1001.93 1002.58 1002.04 1002.82 1005.11
1021.35 1021.03 1020.69 1020.30 1019.74 1019.09 1018.41 1017.60 1016.76 1016.03 1013.82 1013.26 1012.24 1010.82 1009.59 1007.20 1005.96 1004.81 1004.84 1004.54 1004.38 1004.52 1004.35 1004.36 1004.35 1004.51 1004.54 1004.65 1004.65 1004.41 1004.04 1003.84 1003.76 1003.77 1003.76 1003.86 1004.28 1004.93 1004.58 1003.67 1002.85 1002.49 1002.47 1002.60 1002.57 1002.73 1004.66
1021.20 1020.98 1020.71 1020.38 1019.96 1019.43 1018.83 1018.18 1017.49 1017.03 1017.04 1015.87 1013.35 1011.83 1010.33 1008.66 1007.05 1006.10 1005.61 1005.42 1005.26 1005.36 1005.33 1005.06 1004.78 1004.77 1005.14 1004.81 1004.53 1004.03 1003.77 1003.68 1003.64 1003.68 1003.77 1004.32 1004.79 1005.21 1005.54 1004.82 1004.33 1003.41 1002.13 1002.12 1003.13 1003.14 1004.06
1021.06 1020.88 1020.66 1020.37 1020.02 1019.61 1019.12 1018.56 1017.95 1017.39 1017.02 1016.14 1014.01 1013.04 1012.01 1010.27 1008.48 1007.00 1006.70 1006.39 1006.05 1005.53 1005.62 1005.13 1005.01 1005.21 1005.19 1005.18 1005.15 1004.83 1004.35 1003.87 1003.58 1003.46 1003.59 1003.87 1004.65 1005.72 1005.86 1005.73 1004.69 1003.68 1003.24 1002.84 1003.24 1004.42 1004.52
1020.90 1020.68 1020.50 1020.29 1020.00 1019.67 1019.30 1018.83 1018.28 1017.71 1017.23 1016.08 1014.41 1013.18 1012.83 1011.43 1009.19 1008.16 1007.68 1007.22 1006.76 1006.43 1005.86 1005.21 1005.07 1004.98 1005.23 1005.50 1005.61 1005.29 1004.56 1003.59 1003.65 1003.34 1003.14 1003.83 1004.37 1005.57 1006.09 1006.17 1005.45 1004.62 1003.69 1003.26 1003.15 1005.33 1005.38
1020.60 1020.48 1020.28 1020.13 1019.90 1019.64 1019.35 1018.96 1018.55 1018.03 1017.52 1017.23 1014.90 1013.66 1012.86 1012.10 1009.77 1009.37 1008.33 1008.12 1007.76 1007.55 1007.08 1006.47 1006.00 1005.35 1005.24 1005.80 1006.06 1005.61 1004.86 1004.22 1004.07 1004.01 1004.28 1004.53 1005.34 1005.88 1006.14 1006.25 1005.64 1004.91 1004.32 1004.17 1004.96 1006.90 1006.11
1020.20 1020.09 1019.96 1019.86 1019.74 1019.54 1019.29 1019.00 1018.66 1018.28 1017.84 1017.45 1015.41 1013.94 1013.62 1012.96 1010.97 1009.78 1009.22 1008.99 1008.55 1008.23 1008.08 1007.51 1006.74 1006.36 1006.25 1006.64 1006.66 1006.38 1005.61 1005.33 1005.05 1004.89 1004.85 1005.35 1006.00 1006.29 1006.13 1006.18 1006.44 1005.55 1005.09 1005.60 1006.43 1006.30 1006.45
1019.79 1019.70 1019.62 1019.47 1019.40 1019.35 1019.19 1018.95 1018.71 1018.42 1018.08 1017.60 1016.01 1014.72 1014.13 1013.49 1011.43 1009.86 1009.18 1008.86 1008.60 1008.13 1008.28 1007.94 1007.87 1007.36 1007.32 1007.68 1007.83 1007.46 1007.06 1006.53 1006.38 1006.04 1005.39 1006.07 1006.13 1006.64 1007.09 1007.11 1006.48 1005.98 1006.16 1006.34 1006.46 1006.63 1006.75
Wind_Speed
16 16 16 16 15 16 16 17 17 17 17 17 17 17 16 17 18 18 18 20 19 18 18 16 15 12 6 3 9 7 11 8 7 5 12 13 11 9 6 11 10 19 15 15 11 15 10
16 17 17 17 17 17 17 17 18 18 19 18 17 17 17 17 18 19 19 20 20 18 17 15 12 8 4 5 6 12 10 8 9 8 8 15 13 4 7 8 17 21 12 11 4 4 8
16 17 17 17 18 18 17 18 18 20 19 19 18 17 17 17 18 20 21 20 20 19 16 13 8 5 5 12 11 10 11 6 9 10 12 14 10 7 10 10 16 16 13 9 10 3 7
16 17 17 18 18 18 18 18 19 20 20 20 19 18 17 16 18 19 20 19 21 20 15 11 5 5 8 7 10 11 10 10 12 15 14 9 8 6 4 6 4 11 6 6 10 7 9
17 17 18 19 19 19 19 19 20 20 19 20 20 18 17 16 18 18 19 21 22 18 11 4 4 4 8 1 6 12 11 10 13 13 9 10 5 7 2 4 5 7 6 4 8 10 5
19 19 20 21 21 22 21 22 20 21 20 18 19 19 17 16 16 17 19 23 12 12 6 8 9 3 7 10 7 9 10 11 9 8 7 6 4 3 5 6 4 5 2 16 13 3 15
19 19 21 21 22 22 22 22 21 19 18 18 18 16 17 15 14 11 11 2 1 2 5 11 9 7 5 14 9 9 9 8 8 6 6 8 2 7 16 7 12 16 16 15 19 15 15
19 20 21 22 22 22 23 23 21 19 21 19 17 15 16 12 9 6 5 4 8 4 6 20 18 17 18 10 8 10 9 6 5 7 9 7 6 14 13 11 13 16 18 22 18 22 19
18 18 19 19 19 20 21 22 23 20 19 20 19 15 13 10 7 4 7 8 13 9 3 7 12 8 3 2 6 9 10 8 8 9 11 8 4 7 19 19 15 16 10 7 24 11 25
18 18 19 20 21 22 23 23 24 21 20 20 17 14 12 8 3 4 6 10 13 5 3 6 7 5 7 5 9 9 11 9 8 13 12 10 9 11 15 14 9 5 6 8 12 9 7
19 20 20 21 22 23 24 24 23 25 22 18 15 13 9 4 7 4 3 2 4 3 3 15 11 6 9 9 6 10 11 7 11 11 2 15 10 18 13 8 7 6 6 4 7 4 7
18 19 20 21 23 23 24 24 23 24 20 16 13 10 6 4 4 11 11 6 1 1 4 9 6 7 8 9 11 8 7 6 8 9 12 12 7 4 2 6 6 5 7 9 7 7 5
19 20 21 22 23 24 24 24 24 23 20 16 11 7 4 7 5 6 6 3 2 4 2 12 10 8 9 9 9 9 8 7 6 2 7 10 9 5 3 5 10 5 4 6 7 5 2
18 20 21 22 23 24 25 25 25 25 23 17 10 5 11 8 8 11 5 3 2 9 5 5 9 10 10 11 8 8 8 7 11 9 10 6 10 9 5 7 7 7 4 5 4 4 7
18 20 21 22 23 25 26 26 26 28 26 20 14 4 5 7 12 6 2 3 7 5 6 9 11 8 9 12 2 8 11 11 11 12 6 4 13 8 8 5 9 11 5 7 8 7 7
18 19 21 23 24 25 26 26 27 30 30 21 2 4 9 9 12 5 2 6 4 9 9 13 5 11 9 9 5 7 10 3 3 6 7 7 6 3 4 2 5 4 3 8 5 6 4
17 19 21 23 24 25 27 27 27 29 34 9 3 3 5 15 8 2 3 3 6 5 13 11 13 6 7 7 8 7 6 7 7 7 6 5 0 10 5 5 7 5 5 4 2 9 8
17 18 20 22 24 26 28 28 26 24 31 3 5 4 10 9 2 4 4 8 9 13 12 10 15 3 6 3 7 8 10 6 6 5 5 6 2 6 9 10 9 6 8 5 6 3 5
16 17 19 21 24 27 28 30 29 23 11 6 4 4 8 7 4 7 1 2 3 9 11 12 5 12 8 8 8 11 4 4 4 4 3 5 6 6 10 15 19 5 9 5 3 6 5
15 16 18 21 24 27 27 30 32 33 22 5 3 4 3 1 3 10 7 6 4 4 6 7 5 7 8 8 3 4 8 6 5 4 3 5 4 3 4 12 13 7 15 7 3 6 2
14 15 16 21 24 26 27 29 32 38 36 2 3 4 5 5 7 8 9 8 12 11 11 13 10 16 10 8 10 13 10 4 4 1 2 1 5 6 5 5 4 3 6 18 4 3 8
13 14 15 19 23 24 26 27 28 35 42 4 5 5 7 9 10 3 7 8 13 12 9 9 10 13 10 8 8 8 10 9 5 8 7 9 6 9 9 7 11 7 9 11 6 10 23
12 13 14 18 20 22 24 24 25 25 24 5 8 6 4 9 10 5 6 8 8 8 5 12 10 6 9 10 8 8 7 7 7 6 8 7 5 6 7 10 12 6 1 12 7 17 19
11 11 14 16 17 20 22 22 22 21 16 3 5 5 4 6 7 4 7 8 9 5 3 7 6 3 4 7 10 9 8 8 8 9 6 5 5 2 5 7 6 3 6 4 7 11 16
13 13 13 14 16 18 20 21 21 20 19 4 5 4 4 6 11 11 11 10 7 5 5 5 5 2 6 7 4 5 5 4 9 10 9 6 2 2 2 2 7 3 7 4 3 8 10
13 13 13 13 13 15 17 19 19 19 19 6 5 2 3 5 7 12 9 10 4 7 6 3 4 4 3 3 2 4 4 3 3 4 3 4 1 5 3 1 4 1 8 10 5 6 9
12 12 12 13 13 13 15 17 17 18 17 6 5 10 3 4 2 11 5 5 6 6 4 5 7 4 5 2 4 4 2 2 2 4 2 3 3 2 4 3 3 5 8 8 3 5 7
12 11 11 12 12 12 12 14 14 15 16 9 7 7 4 4 11 6 10 7 8 6 4 8 7 6 5 3 2 4 4 2 4 4 1 2 2 3 3 2 3 8 4 5 6 5 7
11 12 11 10 9 9 9 11 12 13 13 12 4 8 8 4 8 16 17 16 15 8 4 5 5 4 1 3 5 5 4 5 5 2 4 2 4 2 2 6 4 4 9 6 7 5 3
Wind_Direction
350 344 342 340 336 332 329 328 328 326 326 328 327 326 326 324 320 318 316 314 312 314 315 318 317 319 303 221 252 133 132 153 177 198 226 230 196 185 209 200 177 227 180 206 232 217 205
344 341 340 336 333 331 329 326 325 327 325 325 324 323 322 319 316 314 313 311 308 310 312 313 312 316 256 248 112 142 159 158 193 201 240 239 249 336 303 238 185 186 150 142 138 244 133
342 340 337 335 332 330 327 326 325 327 323 321 321 319 318 315 312 311 309 307 305 307 307 304 298 262 262 240 133 165 158 186 213 207 243 266 340 8 315 329 33 350 133 148 173 136 35
342 340 336 334 331 330 327 326 326 327 322 320 317 317 314 312 310 309 307 304 302 301 299 288 245 241 253 217 170 161 184 201 217 242 251 306 315 309 20 357 46 183 269 148 140 99 25
345 343 338 335 332 330 329 329 331 328 323 319 317 317 314 311 310 309 306 298 296 291 276 260 172 242 267 285 203 191 170 218 222 226 263 267 288 264 6 76 7 227 177 216 110 109 107
348 345 340 338 337 335 333 332 331 328 323 317 315 315 313 311 311 312 307 290 281 310 203 200 259 271 266 220 202 225 183 221 244 238 260 235 252 358 311 77 232 288 336 164 140 115 53
348 344 342 338 336 335 335 332 331 327 321 319 315 311 311 310 311 321 335 23 333 276 245 205 191 232 166 220 171 209 197 213 251 294 270 274 181 197 244 226 240 253 254 223 126 150 93
350 346 343 340 337 334 334 332 331 326 326 320 315 311 311 308 305 328 297 257 273 310 290 227 251 262 275 159 175 192 169 203 181 258 269 287 259 225 246 262 263 276 293 88 136 162 95
342 338 335 332 331 328 325 330 335 328 325 325 319 314 310 300 318 278 225 240 295 313 268 244 211 226 206 103 192 212 167 208 228 222 253 244 162 28 276 276 273 263 216 124 156 186 107
340 336 333 332 330 327 327 326 337 332 330 328 323 319 311 322 311 261 227 244 249 295 298 216 200 216 211 199 252 214 174 181 225 232 233 241 189 184 249 249 274 44 34 6 153 148 146
341 337 335 333 332 330 329 328 333 339 334 324 319 318 308 266 311 267 315 29 330 356 282 151 187 204 189 184 197 207 163 213 250 263 226 242 242 226 217 263 317 271 4 346 297 82 97
338 337 336 335 333 332 330 331 331 337 331 325 321 318 304 200 226 246 293 303 258 316 235 159 140 174 158 212 258 132 156 213 255 278 287 266 269 327 290 320 285 355 319 294 271 135 56
338 337 335 334 332 332 332 333 334 333 332 331 327 315 244 306 236 305 270 296 295 229 213 154 159 175 199 215 211 154 174 210 226 223 268 274 250 238 151 307 319 294 306 318 357 60 183
337 336 335 334 333 334 335 336 337 336 334 330 315 293 219 235 283 300 291 298 231 277 278 105 153 183 193 213 208 162 165 217 237 247 274 259 279 206 200 183 233 286 251 167 324 145 139
337 336 336 335 336 336 337 339 341 339 334 330 312 193 236 237 218 261 301 272 219 220 23 135 163 186 213 216 173 150 188 207 220 212 219 343 330 146 179 179 171 271 325 253 91 31 68
337 337 337 337 338 337 339 341 344 342 335 336 287 254 240 166 169 217 216 241 346 24 44 348 177 186 190 178 193 182 198 187 110 68 51 316 338 234 164 44 306 229 266 351 3 126 82
335 336 339 338 338 339 340 343 346 344 335 353 252 307 121 152 164 222 245 300 17 23 91 36 332 357 355 152 202 217 150 50 44 24 24 344 134 291 98 187 212 286 290 270 168 131 141
335 336 338 340 340 341 341 343 348 350 336 336 308 302 154 163 197 215 254 359 13 1 94 143 225 268 5 268 83 58 60 48 13 359 358 345 252 317 257 274 201 223 219 200 126 347 92
335 337 339 341 345 343 342 342 344 353 9 310 286 256 177 184 269 315 159 141 55 11 10 16 136 160 262 355 82 114 81 90 12 39 85 339 326 347 339 1 335 11 313 358 16 99 183
333 337 339 344 347 346 344 344 343 343 352 186 286 307 333 340 302 11 10 25 75 62 55 13 358 342 335 355 46 51 144 141 136 56 135 136 253 197 176 187 230 330 341 296 63 86 103
331 335 342 346 348 349 347 347 347 346 347 246 327 2 3 334 359 2 357 345 30 28 14 23 19 20 21 11 12 13 14 150 135 159 318 301 316 354 324 24 232 38 10 354 68 20 111
328 333 342 347 348 350 350 349 353 352 337 63 9 355 339 295 322 313 18 16 36 27 0 6 25 0 360 41 14 346 360 8 34 352 350 346 333 5 328 131 254 232 131 200 346 66 106
321 329 340 344 347 350 351 350 354 4 349 351 354 324 266 288 305 25 28 19 12 52 7 16 19 353 27 358 338 307 304 302 301 342 324 335 350 11 303 346 337 67 6 23 34 61 127
316 327 335 340 345 348 350 350 352 2 16 276 306 310 301 304 340 48 23 6 6 47 315 314 300 15 13 333 315 304 276 255 264 273 264 285 320 340 274 9 357 264 308 359 337 46 106
311 316 324 332 340 345 347 348 349 352 359 311 291 9 319 306 323 23 7 352 313 245 203 235 36 357 299 308 311 278 270 263 234 230 233 228 236 323 142 267 276 57 18 4 331 35 95
301 305 312 321 330 338 343 344 346 348 356 321 281 2 302 310 9 10 324 334 347 358 331 133 104 9 315 248 263 236 251 175 150 162 87 337 353 124 339 327 290 132 27 357 40 36 29
284 292 299 308 318 329 336 340 341 345 351 330 280 322 317 299 292 334 359 358 355 335 291 34 334 314 213 276 297 258 256 320 46 32 149 64 340 250 212 208 105 16 18 344 36 199 58
278 272 282 294 303 313 325 332 337 342 350 357 287 341 359 298 286 312 356 340 336 341 345 324 346 353 5 337 342 324 32 15 9 355 11 88 33 323 317 217 85 325 27 89 193 80 77
276 274 271 273 283 296 312 323 330 338 346 343 289 335 337 262 271 307 282 263 261 266 299 320 272 289 78 9 6 340 354 11 0 296 23 49 121 156 78 179 207 68 100 81 60 105 69